| time (UTC) | temp C | wind direction | speed KPH | gust KPH | rain 1hr cm | rain 24hr cm | rain mn cm | humidity % | barometer mb |
| 20260906233052 | 16 | 164 | 3.2 | 17.7 | 0.00 | 0.00 | 0.00 | 57 | 1016.6 |
| 20260906231502 | 16 | 229 | 3.2 | 19.3 | 0.00 | 0.00 | 0.00 | 57 | 1016.6 |
| 20260906230056 | 16 | 203 | 4.8 | 24.1 | 0.00 | 0.00 | 0.00 | 56 | 1016.7 |
| 20260906224506 | 16 | 214 | 6.4 | 19.3 | 0.00 | 0.00 | 0.00 | 61 | 1016.7 |
| 20260906223104 | 16 | 266 | 4.8 | 20.9 | 0.00 | 0.00 | 0.00 | 63 | 1016.9 |
| 20260906221508 | 15 | 150 | 4.8 | 11.3 | 0.00 | 0.00 | 0.00 | 65 | 1017.2 |
| 20260906220055 | 15 | 271 | 3.2 | 6.4 | 0.00 | 0.00 | 0.00 | 68 | 1017.3 |
| 20260906214606 | 15 | 110 | 0.0 | 8.0 | 0.00 | 0.00 | 0.00 | 70 | 1017.5 |
| 20260906213052 | 14 | 271 | 1.6 | 4.8 | 0.00 | 0.00 | 0.00 | 70 | 1017.7 |
| 20260906211501 | 14 | 252 | 0.0 | 3.2 | 0.00 | 0.00 | 0.00 | 72 | 1017.8 |
| 20260906204507 | 14 | 40 | 0.0 | 6.4 | 0.00 | 0.00 | 0.00 | 72 | 1017.9 |
| 20260906203053 | 13 | 243 | 0.0 | 4.8 | 0.00 | 0.00 | 0.00 | 73 | 1017.9 |
| 20260906201600 | 14 | 18 | 1.6 | 4.8 | 0.00 | 0.00 | 0.00 | 72 | 1017.9 |
| 20260906200053 | 14 | 314 | 1.6 | 4.8 | 0.00 | 0.00 | 0.00 | 72 | 1018.1 |
| 20260906194503 | 14 | 319 | 4.8 | 8.0 | 0.00 | 0.00 | 0.00 | 71 | 1018.1 |
| 20260906193056 | 14 | 299 | 1.6 | 8.0 | 0.00 | 0.00 | 0.00 | 73 | 1018.2 |
| 20260906191550 | 13 | 312 | 0.0 | 6.4 | 0.00 | 0.00 | 0.00 | 75 | 1018.4 |
| 20260906190003 | 13 | 60 | 3.2 | 6.4 | 0.00 | 0.00 | 0.00 | 76 | 1018.4 |
| 20260906184555 | 12 | 342 | 3.2 | 8.0 | 0.00 | 0.00 | 0.00 | 77 | 1018.6 |
| 20260906183007 | 12 | 345 | 1.6 | 8.0 | 0.00 | 0.00 | 0.00 | 80 | 1018.9 |
| 20260906181556 | 11 | 18 | 0.0 | 3.2 | 0.00 | 0.00 | 0.00 | 81 | 1019.1 |
| 20260906180002 | 10 | 346 | 0.0 | 4.8 | 0.00 | 0.00 | 0.00 | 83 | 1019.3 |
| 20260906174613 | 8 | 18 | 3.2 | 6.4 | 0.00 | 0.00 | 0.00 | 86 | 1019.4 |
| 20260906173100 | 8 | 101 | 0.0 | 6.4 | 0.00 | 0.00 | 0.00 | 89 | 1019.4 |
| 20260906171612 | 7 | 76 | 0.0 | 4.8 | 0.00 | 0.00 | 0.00 | 92 | 1019.5 |
| 20260906170054 | 6 | 104 | 0.0 | 3.2 | 0.00 | 0.00 | 0.00 | 93 | 1019.8 |
| 20260906164556 | 5 | 80 | 0.0 | 1.6 | 0.00 | 0.00 | 0.00 | 97 | 1019.8 |
| 20260906163045 | 5 | 189 | 0.0 | 0.0 | 0.00 | 0.00 | 0.00 | 98 | 1019.8 |
| 20260906161621 | 4 | 189 | 0.0 | 0.0 | 0.00 | 0.00 | 0.00 | 98 | 1019.9 |
| 20260906161503 | 4 | 189 | 0.0 | 0.0 | 0.00 | 0.00 | 0.00 | 98 | 1019.9 |
| 20260906160047 | 3 | 172 | 0.0 | 0.0 | 0.00 | 0.00 | 0.00 | 98 | 1019.9 |
| 20260906154504 | 3 | 172 | 0.0 | 0.0 | 0.00 | 0.00 | 0.00 | 98 | 1020.0 |
| 20260906153107 | 2 | 172 | 0.0 | 0.0 | 0.00 | 0.00 | 0.00 | 98 | 1020.0 |
| 20260906151549 | 2 | 172 | 0.0 | 0.0 | 0.00 | 0.00 | 0.00 | 97 | 1020.1 |
| 20260906150108 | 2 | 172 | 0.0 | 0.0 | 0.00 | 0.00 | 0.00 | 97 | 1020.3 |
| 20260906144550 | 2 | 172 | 0.0 | 0.0 | 0.00 | 0.00 | 0.00 | 97 | 1020.4 |
| 20260906143002 | 1 | 328 | 0.0 | 0.0 | 0.00 | 0.00 | 0.00 | 95 | 1020.4 |
| 20260906141621 | 2 | 329 | 0.0 | 0.0 | 0.00 | 0.00 | 0.00 | 97 | 1020.5 |
| 20260906140002 | 2 | 329 | 0.0 | 0.0 | 0.00 | 0.00 | 0.00 | 96 | 1020.6 |
| 20260906134559 | 2 | 329 | 0.0 | 0.0 | 0.00 | 0.00 | 0.00 | 95 | 1020.6 |
| 20260906133055 | 3 | 329 | 0.0 | 0.0 | 0.00 | 0.00 | 0.00 | 96 | 1020.7 |
| 20260906131609 | 4 | 329 | 0.0 | 0.0 | 0.00 | 0.00 | 0.00 | 98 | 1020.8 |
| 20260906130059 | 4 | 329 | 0.0 | 0.0 | 0.00 | 0.00 | 0.00 | 95 | 1021.0 |
| 20260906124501 | 5 | 329 | 0.0 | 0.0 | 0.00 | 0.00 | 0.00 | 96 | 1021.0 |
| 20260906123055 | 5 | 329 | 0.0 | 0.0 | 0.00 | 0.00 | 0.00 | 97 | 1020.9 |
| 20260906121521 | 5 | 329 | 0.0 | 0.0 | 0.00 | 0.00 | 0.00 | 95 | 1020.8 |
| 20260906114512 | 6 | 328 | 0.0 | 0.0 | 0.00 | 0.00 | 0.00 | 95 | 1020.9 |
| 20260906113059 | 7 | 329 | 0.0 | 0.0 | 0.00 | 0.00 | 0.00 | 96 | 1020.9 |
| 20260906111551 | 7 | 328 | 0.0 | 0.0 | 0.00 | 0.00 | 0.00 | 91 | 1020.9 |
| 20260906110057 | 8 | 328 | 0.0 | 0.0 | 0.00 | 0.00 | 0.00 | 92 | 1020.8 |
| 20260906104553 | 8 | 329 | 0.0 | 0.0 | 0.00 | 0.00 | 0.00 | 92 | 1020.8 |
| 20260906103012 | 8 | 329 | 0.0 | 0.0 | 0.00 | 0.00 | 0.00 | 92 | 1020.8 |
| 20260906101603 | 9 | 328 | 0.0 | 0.0 | 0.00 | 0.00 | 0.00 | 91 | 1020.8 |
| 20260906100047 | 9 | 328 | 0.0 | 1.6 | 0.00 | 0.00 | 0.00 | 90 | 1020.7 |
| 20260906094605 | 9 | 330 | 0.0 | 3.2 | 0.00 | 0.00 | 0.00 | 89 | 1020.9 |
| 20260906093053 | 10 | 139 | 0.0 | 1.6 | 0.00 | 0.00 | 0.00 | 89 | 1020.7 |
| 20260906091549 | 10 | 240 | 0.0 | 0.0 | 0.00 | 0.00 | 0.00 | 87 | 1020.5 |
| 20260906090057 | 10 | 69 | 0.0 | 0.0 | 0.00 | 0.00 | 0.00 | 87 | 1020.5 |
| 20260906084558 | 10 | 69 | 0.0 | 0.0 | 0.00 | 0.00 | 0.00 | 86 | 1020.6 |
| 20260906083104 | 11 | 65 | 0.0 | 1.6 | 0.00 | 0.00 | 0.00 | 85 | 1020.7 |
| 20260906081556 | 11 | 66 | 0.0 | 3.2 | 0.00 | 0.00 | 0.00 | 86 | 1020.6 |
| 20260906080047 | 11 | 69 | 0.0 | 4.8 | 0.00 | 0.00 | 0.00 | 86 | 1020.5 |
| 20260906074554 | 11 | 73 | 1.6 | 4.8 | 0.00 | 0.00 | 0.00 | 86 | 1020.6 |
| 20260906073043 | 11 | 115 | 0.0 | 3.2 | 0.00 | 0.00 | 0.00 | 85 | 1020.5 |
| 20260906071501 | 11 | 86 | 0.0 | 1.6 | 0.00 | 0.00 | 0.00 | 84 | 1020.4 |
| 20260906070047 | 11 | 318 | 0.0 | 1.6 | 0.00 | 0.00 | 0.00 | 84 | 1020.3 |
| 20260906064602 | 11 | 354 | 0.0 | 3.2 | 0.00 | 0.00 | 0.00 | 83 | 1020.2 |
| 20260906063052 | 12 | 340 | 1.6 | 3.2 | 0.00 | 0.00 | 0.00 | 81 | 1020.2 |
| 20260906061504 | 12 | 40 | 1.6 | 9.7 | 0.00 | 0.00 | 0.00 | 80 | 1019.9 |
| 20260906060133 | 12 | 356 | 3.2 | 16.1 | 0.00 | 0.00 | 0.00 | 78 | 1019.8 |
| 20260906054605 | 13 | 346 | 1.6 | 11.3 | 0.00 | 0.00 | 0.00 | 77 | 1019.6 |
| 20260906053059 | 13 | 317 | 4.8 | 12.9 | 0.00 | 0.00 | 0.00 | 75 | 1019.5 |
| 20260906051600 | 15 | 298 | 4.8 | 17.7 | 0.00 | 0.00 | 0.00 | 69 | 1019.4 |
| 20260906050003 | 15 | 112 | 4.8 | 20.9 | 0.00 | 0.00 | 0.00 | 63 | 1018.9 |
| 20260906044555 | 15 | 200 | 4.8 | 17.7 | 0.00 | 0.00 | 0.00 | 64 | 1018.7 |
| 20260906043050 | 15 | 252 | 6.4 | 17.7 | 0.00 | 0.00 | 0.00 | 65 | 1018.4 |
| 20260906041600 | 15 | 179 | 3.2 | 12.9 | 0.00 | 0.00 | 0.00 | 65 | 1018.1 |
| 20260906040046 | 16 | 146 | 6.4 | 19.3 | 0.00 | 0.00 | 0.00 | 64 | 1017.9 |
| 20260906034503 | 16 | 198 | 11.3 | 19.3 | 0.00 | 0.00 | 0.00 | 61 | 1017.8 |
| 20260906033055 | 17 | 203 | 8.0 | 22.5 | 0.00 | 0.00 | 0.00 | 59 | 1017.7 |
| 20260906031554 | 18 | 141 | 6.4 | 22.5 | 0.00 | 0.00 | 0.00 | 56 | 1017.4 |
| 20260906030058 | 18 | 162 | 9.7 | 20.9 | 0.00 | 0.00 | 0.00 | 54 | 1017.5 |
| 20260906024556 | 18 | 190 | 12.9 | 27.4 | 0.00 | 0.00 | 0.00 | 53 | 1017.4 |
| 20260906023051 | 18 | 229 | 12.9 | 25.7 | 0.00 | 0.00 | 0.00 | 53 | 1017.2 |
| 20260906021602 | 18 | 198 | 9.7 | 24.1 | 0.00 | 0.00 | 0.00 | 53 | 1017.0 |
| 20260906020051 | 19 | 240 | 12.9 | 22.5 | 0.00 | 0.00 | 0.00 | 53 | 1016.9 |
| 20260906014549 | 19 | 165 | 8.0 | 25.7 | 0.00 | 0.00 | 0.00 | 52 | 1016.9 |
| 20260906013059 | 19 | 286 | 12.9 | 27.4 | 0.00 | 0.00 | 0.00 | 51 | 1016.9 |
| 20260906011550 | 19 | 119 | 8.0 | 25.7 | 0.00 | 0.00 | 0.00 | 54 | 1016.7 |
| 20260906010002 | 19 | 245 | 14.5 | 29.0 | 0.00 | 0.00 | 0.00 | 54 | 1016.8 |
| 20260906004607 | 20 | 253 | 14.5 | 38.6 | 0.00 | 0.00 | 0.00 | 52 | 1017.0 |
| 20260906003056 | 20 | 265 | 12.9 | 37.0 | 0.00 | 0.00 | 0.00 | 53 | 1016.9 |
| 20260906001601 | 20 | 146 | 12.9 | 33.8 | 0.00 | 0.00 | 0.00 | 52 | 1016.9 |
| 20260906000058 | 20 | 159 | 12.9 | 27.4 | 0.00 | 0.00 | 0.00 | 52 | 1017.1 |
| 20260905234548 | 20 | 205 | 16.1 | 30.6 | 0.00 | 0.00 | 0.00 | 52 | 1017.0 |